UTTI current weather conditions

sailwx.info

Wind from 170 at 9 knots

Air temperature 1.0° C
Visibility: greater than 5.4 NM
Dewpoint -1.0° C

Last reported at 2015-Mar-01 08:50 UTC.
Time now 2015-Mar-01 11:00 UTC

Location: N 60°54' E 026°56'.
View on Google Maps.

See reports from other nearby stations

  
Tides and Currents Weather Stations Pressure Air Temp Water Temp Dewpoint Dewpoint Depression Visibility Wind Speed Wind Dir Waves Ship Positions
date/time (UTC)wind fromknots sea level pressurealtimeterstation pressurevisibilityair tempwater tempwave heightnotes
2015-Mar-01 08:50 170 9 5.4 1.0
2015-Mar-01 08:20 160 10 5.4-0.0
2015-Mar-01 07:50 160 8 5.4-0.0
2015-Mar-01 07:20 170 8 5.4-0.0
2015-Mar-01 06:50 170 8 5.4-0.0
2015-Mar-01 06:20 160 8 5.4-0.0
2015-Mar-01 05:50 170 7 5.4-0.0
2015-Mar-01 05:20 160 7 5.4-0.0
2015-Mar-01 04:50 170 7 5.4-0.0
2015-Mar-01 04:20 170 7 5.4-0.0
2015-Mar-01 03:50 170 6 5.4-0.0
2015-Mar-01 03:20 170 6 5.4-0.0
2015-Mar-01 02:50 170 6 5.4-0.0
2015-Mar-01 02:20 170 5 5.4-0.0
2015-Mar-01 01:50 170 5 5.4-0.0
2015-Mar-01 01:20 190 6 5.4-0.0
2015-Mar-01 00:50 190 8 5.4-0.0
2015-Mar-01 00:20 200 7 5.4-0.0
2015-Feb-28 23:50 180 7 5.4-0.0
2015-Feb-28 23:20 180 6 3.8-0.0
2015-Feb-28 22:50 170 6 5.4-0.0
2015-Feb-28 22:20 190 5 5.4-0.0 Light snow showers.
2015-Feb-28 21:50 170 5 5.4-0.0
2015-Feb-28 21:20 160 5 5.4-0.0
2015-Feb-28 20:50 180 6 5.4-0.0 Light snow showers.
2015-Feb-28 20:20 170 6 5.4-1.0
2015-Feb-28 19:50 170 7 5.4-1.0
2015-Feb-28 19:20 170 6 5.4-1.0
2015-Feb-28 18:50 180 5 5.4-1.0
2015-Feb-28 18:20 180 6 5.4-1.0
2015-Feb-28 17:50 180 5 5.4-1.0
2015-Feb-28 17:20 170 5 5.4-1.0
2015-Feb-28 16:50 160 3 5.4-0.0
2015-Feb-28 16:20 190 4 5.4-0.0
2015-Feb-28 15:50 180 4 5.4-0.0
2015-Feb-28 15:20 210 3 5.4-0.0
2015-Feb-28 14:50 210 5 5.4-0.0
2015-Feb-28 14:20 210 4 5.4-0.0
2015-Feb-28 13:50 180 3 5.4-0.0
2015-Feb-28 13:20 160 3 5.4-1.0
2015-Feb-28 12:50 160 3 5.4-1.0
2015-Feb-28 12:20 160 4 5.4-1.0
2015-Feb-28 11:50 170 3 5.4-1.0
2015-Feb-28 11:20 180 2 5.4-1.0
2015-Feb-28 10:50 170 1 5.4-1.0
2015-Feb-28 10:20 300 1 5.4-1.0
2015-Feb-28 09:50 240 3 5.4-1.0
2015-Feb-28 09:20 230 2 5.4-1.0
2015-Feb-28 08:50 5.4-1.0
2015-Feb-28 08:20 300 1 5.4-1.0
2015-Feb-28 07:50 300 4 3.8-1.0 Light snow.
2015-Feb-28 07:20 300 4 0.8-2.0 Snow.
2015-Feb-28 06:50 310 2 0.8-1.0 Light freezing rain.
2015-Feb-28 06:20 270 2 0.5-1.0 Light freezing drizzle. Freezing fog.
2015-Feb-28 05:50 0.1-1.0 Freezing fog.
2015-Feb-28 05:20 110 1 0.1-2.0 Freezing fog.
2015-Feb-28 04:50 0.2-1.0 Freezing fog.
2015-Feb-28 04:20 0.2-2.0 Freezing fog.
2015-Feb-28 03:50 0.3-2.0 Freezing fog.
2015-Feb-28 03:20 090 1 0.6-2.0 Mist.
2015-Feb-28 02:50 320 1 1.4-1.0 Mist.
2015-Feb-28 02:20 310 1 1.7-2.0 Mist.
2015-Feb-28 01:50 3.8-2.0
2015-Feb-28 01:20 100 1 4.3-2.0
2015-Feb-28 00:50 110 3 4.3-1.0
2015-Feb-28 00:20 110 3 2.7-1.0
2015-Feb-27 23:50 130 2 2.7-1.0
2015-Feb-27 23:20 130 3 2.4-1.0 Mist.
2015-Feb-27 22:50 110 3 2.7-1.0 Mist.
2015-Feb-27 22:20 1.5-1.0 Mist.
2015-Feb-27 21:50 160 2 1.0-1.0 Mist.
2015-Feb-27 21:20 150 1 0.3-1.0 Freezing fog.
2015-Feb-27 20:50 170 2 0.5-1.0 Mist.
2015-Feb-27 20:20 180 3 1.9-1.0 Mist.
2015-Feb-27 19:50 160 4 2.7-1.0
2015-Feb-27 19:20 150 5 2.7-1.0 Mist.
2015-Feb-27 18:50 140 3 1.6-1.0 Mist.
2015-Feb-27 18:20 140 3 4.3-1.0
2015-Feb-27 17:50 190 2 0.7-1.0 Freezing mist.
2015-Feb-27 17:20 150 3 2.2-1.0 Mist.
2015-Feb-27 16:50 180 4 0.9-1.0 Mist.
2015-Feb-27 16:20 160 2 1.0-1.0 Mist.
2015-Feb-27 15:50 120 3 1.9-1.0 Mist.
2015-Feb-27 15:20 110 5 4.3-1.0
2015-Feb-27 14:50 130 5 3.2-1.0
2015-Feb-27 14:20 110 4 2.7-1.0
2015-Feb-27 13:50 140 4 2.2-1.0 Mist.
2015-Feb-27 13:20 140 4 1.7-1.0 Mist.
2015-Feb-27 12:50 120 6 1.0-1.0 Mist.
2015-Feb-27 12:20 130 5 1.4-1.0 Mist.
2015-Feb-27 11:50 120 6 1.3-1.0 Mist.
2015-Feb-27 11:20 130 5 0.9-0.0 Mist.